Needles, CA

4:09 AM PST on February 09, 2016 (GMT -0800)
Needles

Weather History for KEED - July, 2014

Change the Weather History Date:

Thursday, July 31, 2014

  Actual Average Record
Temperature  
Mean Temperature 101 °F -  
Max Temperature 114 °F 109 °F 117 °F (1969)
Min Temperature 91 °F 84 °F 73 °F (1980)
Cooling Degree Days 36    
Growing Degree Days 51 (Base 50)    
Moisture  
Dew Point 50 °F    
Average Humidity 17    
Maximum Humidity 26    
Minimum Humidity 10    
Precipitation  
Precipitation 0.00 in - - ()
Sea Level Pressure  
Sea Level Pressure 29.68 in    
Wind  
Wind Speed 9 mph (West)    
Max Wind Speed 20 mph    
Max Gust Speed 22 mph    
Visibility 10 miles    
Events      
Averages and records for this station are not official NWS values.
T = Trace of Precipitation, MM = Missing Value Source: NWS Daily Summary

Daily Weather History Graph

Daily Weather History Graph

Search for Another Location

Airport or City:

Trip Planner

Search our weather history database for the weather conditions in past years. The results will help you decide how hot, cold, wet, or windy it might be!

Date:

Astronomy

Jul. 31, 2014 Rise Set
Actual Time 5:47 AM PDT 7:41 PM PDT
Civil Twilight 5:19 AM PDT 8:09 PM PDT
Nautical Twilight 4:46 AM PDT 8:42 PM PDT
Astronomical Twilight 4:10 AM PDT 9:18 PM PDT
Moon 10:05 AM PDT (7/31) 10:10 PM PDT (7/31)
Length of Visible Light 14h 49m
Length of Day
13h 53m
Waxing Crescent, 20% of the Moon is Illuminated
Jul 31
Waxing Crescent
Aug 3
First Quarter
Aug 10
Full
Aug 17
Last Quarter
Aug 25
New

Hourly Weather History & Observations

Time (PDT) Temp. Heat Index Dew Point Humidity Pressure Visibility Wind Dir Wind Speed Gust Speed Precip Events Conditions
12:56 AM 98.1 °F - 51.1 °F 20% 29.67 in 10.0 mi WNW 8.1 mph - N/A   Clear
1:56 AM 99.0 °F - 50.0 °F 19% 29.67 in 10.0 mi NW 9.2 mph - N/A   Clear
2:56 AM 98.1 °F - 48.9 °F 19% 29.68 in 10.0 mi NW 9.2 mph - N/A   Clear
3:56 AM 96.1 °F - 50.0 °F 21% 29.69 in 10.0 mi NW 8.1 mph - N/A   Clear
4:56 AM 93.9 °F - 50.0 °F 22% 29.70 in 10.0 mi WNW 5.8 mph - N/A   Clear
5:56 AM 91.9 °F - 52.0 °F 26% 29.71 in 10.0 mi NW 5.8 mph - N/A   Clear
6:56 AM 96.1 °F - 48.9 °F 20% 29.73 in 10.0 mi NW 6.9 mph - N/A   Clear
7:56 AM 99.0 °F - 48.9 °F 18% 29.73 in 10.0 mi North 9.2 mph - N/A   Clear
8:56 AM 102.0 °F - 48.9 °F 17% 29.73 in 10.0 mi North 10.4 mph - N/A   Clear
9:56 AM 105.1 °F - 50.0 °F 16% 29.73 in 10.0 mi NNE 10.4 mph - N/A   Clear
10:56 AM 106.0 °F - 50.0 °F 15% 29.73 in 10.0 mi ENE 8.1 mph - N/A   Clear
11:56 AM 106.0 °F - 48.9 °F 15% 29.72 in 10.0 mi Calm Calm - N/A   Clear
12:56 PM 109.9 °F - 46.0 °F 12% 29.70 in 10.0 mi SW 8.1 mph - N/A   Clear
1:56 PM 111.0 °F - 45.0 °F 11% 29.68 in 10.0 mi Variable 5.8 mph - N/A   Clear
2:56 PM 111.9 °F - 43.0 °F 10% 29.65 in 10.0 mi SW 11.5 mph - N/A   Clear
3:56 PM 111.9 °F - 44.1 °F 10% 29.63 in 10.0 mi SW 10.4 mph - N/A   Clear
7:56 PM 109.0 °F - 45.0 °F 12% 29.61 in 10.0 mi SW 13.8 mph - N/A   Clear
8:56 PM 106.0 °F 103.9 °F 53.1 °F 17% 29.64 in 10.0 mi SSW 16.1 mph 21.9 mph N/A   Clear
9:56 PM 104.0 °F 102.9 °F 55.9 °F 20% 29.64 in 10.0 mi SSW 15.0 mph - N/A   Clear
10:56 PM 102.0 °F 101.1 °F 57.0 °F 22% 29.66 in 10.0 mi SSW 8.1 mph - N/A   Clear
11:56 PM 100.9 °F 101.0 °F 59.0 °F 25% 29.68 in 10.0 mi SSE 19.6 mph - N/A   Clear